BREEZE-KM R/B, 40556

Orbit data source: Space-Track

BREEZE-KM R/B, 40556 is space debris in LEO originally from a launch on Tue, 31 Mar 2015 UTC launched from the Plesetsk Missile And Space Complex (PKMTR). Debris objects in space refer to the collection of defunct objects orbiting the Earth. Examples of debris include non-operational satellites, rocket bodies, and fragments generated from explosions, collisions, or faulty payload assembly.

Loading next visibility...
Identifier
40556, 2015-020E
Orbit
LEO
Country
Flag of CISCIS
Related business
Manufacturer
Khrunichev
Mission
Spacecraft
Bus & Motor
BRIZ, S5.92
Mass
2,370 kg wet, 2,370 kg dry
Launch date (UTC)
2015-03-31 (10 years ago)
Launch vehicle
Unknown
Launch site
Plesetsk Missile And Space Complex (PKMTR)
Object type
Payload
Rocket body
Debris
Shape & HBR
Hex Cyl + 1 Rod, 2.0 m
Radar Cross Section
10.190 m², Large (>1 m²)

Expand to show TLE details & history
Last TLE update: 15 hours ago

TLE from 15 hours ago
0 BREEZE-KM R/B
1 40556U 15020E   25260.83182153  .00000013  00000-0  15147-4 0  9990
2 40556  82.4923  28.1342 0214231 325.8134  32.9325 12.80555155489292
Epoch: 2025-09-17T19:57Z
TLE epoch observation values (Epoch: 2025-09-17T19:57:49.38Z)
Latitude
-0.00003°
Longitude
91.67633°
Altitude
1,204.284 km
Speed
7.316 km/s
True Right ascension
01h 52m 32s
True Declination
0° 00' 00"
Sunlit
Object was in full shadow at epoch
Visualization orbit readout
Latitude
Unknown
Longitude
Unknown
Altitude
Unknown
Speed
Unknown
Apparent Right ascension
Unknown
Apparent Declination
Unknown
Sunlit
N/A
Visualization observer readout
Local Sidereal Time
03:23:19
Azimuth
Unknown
Elevation
Unknown
Doppler factor
Unknown
Orbital elements
Apogee altitude
1,501.807 km
Perigee altitude
1,171.263 km
Semi-major axis
7,714.672 km
Eccentricity
0.02142
Inclination
82.4923°
RAAN
28.1342°
Arg. of periapsis
325.8134°
True anomaly
34.29764°
Mean anomaly
32.9325°
Eccentric anomaly
33.61198°
Mean motion
3.20307 °/min
Orbital period
112.39 mins
BSTAR
0.000015147
Loading maneuver chart data...
Computing Atmospheric mass density...
Loading historical data...
Loading historical data...
Loading historical data...
Loading historical data...
Loading historical data...
Loading historical data...
Loading historical data...

Documentation

Showing up to 5 results
|